Total_Precipitation_Accumulation
0.00 0.00 0.01 0.01 0.02 0.02 0.05 0.11 0.23 0.27 0.21 0.29 0.38 0.61 0.71 0.82 1.02 1.02 0.88 0.93 1.23 1.43 1.72 2.18 2.73 3.57 4.65 5.55 5.82 5.30 4.79 4.45 4.02 3.60 3.02 2.65 2.59 2.48 2.19 1.91 1.65 1.54 1.47 1.54
0.00 0.02 0.02 0.02 0.02 0.04 0.07 0.10 0.21 0.27 0.19 0.22 0.38 0.71 1.02 1.00 0.93 0.89 0.95 0.95 1.06 1.43 1.88 2.60 3.63 4.21 4.45 4.57 4.34 3.99 3.73 3.51 3.06 2.68 2.44 2.19 2.15 1.96 1.77 1.67 1.63 1.37 1.29 1.34
0.02 0.03 0.02 0.02 0.04 0.09 0.11 0.13 0.20 0.26 0.17 0.18 0.39 0.89 1.18 1.17 0.95 0.82 0.86 0.86 1.04 1.47 2.06 2.86 3.43 3.56 3.28 2.96 2.86 2.81 2.88 2.63 2.50 2.44 2.33 2.21 2.18 1.96 1.70 1.57 1.52 1.31 1.14 1.16
0.01 0.02 0.02 0.02 0.04 0.08 0.09 0.08 0.07 0.10 0.16 0.35 0.54 1.12 1.32 1.09 1.07 0.89 0.88 0.90 0.95 1.23 1.58 2.00 2.24 2.14 2.26 2.39 2.41 2.53 2.62 2.36 2.33 2.27 1.98 1.87 1.77 1.66 1.50 1.44 1.43 1.50 1.26 1.11
0.02 0.03 0.02 0.02 0.03 0.04 0.05 0.04 0.05 0.12 0.23 0.43 0.63 0.90 1.07 0.90 1.09 0.88 0.74 0.74 0.72 0.89 0.97 1.08 1.21 1.37 1.58 1.69 1.86 2.16 2.41 2.33 2.17 2.00 1.93 1.97 1.84 1.77 1.73 1.74 1.68 1.64 1.50 1.27
0.03 0.04 0.03 0.03 0.02 0.03 0.04 0.06 0.13 0.24 0.41 0.90 0.86 0.85 1.09 1.03 1.09 0.85 0.67 0.58 0.64 0.75 0.83 0.87 0.93 1.06 1.24 1.36 1.53 1.78 2.09 2.22 2.15 1.98 1.90 1.91 1.94 1.87 1.76 1.74 1.69 1.52 1.42 1.35
0.09 0.07 0.05 0.04 0.03 0.05 0.06 0.08 0.24 0.59 0.99 1.16 0.74 0.82 1.08 0.84 0.77 0.64 0.42 0.41 0.53 0.72 0.86 0.93 0.89 0.85 0.91 1.06 1.21 1.31 1.49 1.75 1.87 1.84 1.81 1.82 1.91 1.80 1.60 1.50 1.40 1.35 1.18 1.10
0.14 0.12 0.06 0.04 0.05 0.06 0.05 0.04 0.11 0.23 0.35 0.54 0.72 1.10 1.21 0.86 0.58 0.35 0.27 0.36 0.53 0.68 0.73 0.77 0.76 0.72 0.70 0.77 0.95 1.08 1.26 1.44 1.64 1.66 1.63 1.63 1.69 1.61 1.49 1.46 1.25 1.18 1.13 1.07
0.05 0.05 0.04 0.04 0.06 0.07 0.05 0.04 0.04 0.08 0.13 0.34 0.71 1.02 0.97 0.76 0.57 0.40 0.33 0.35 0.45 0.50 0.53 0.64 0.70 0.77 0.75 0.71 0.82 0.94 1.15 1.33 1.51 1.62 1.65 1.58 1.57 1.56 1.54 1.48 1.30 1.15 1.23 1.16
0.02 0.02 0.04 0.05 0.06 0.06 0.05 0.05 0.04 0.05 0.12 0.26 0.55 0.96 1.15 0.94 0.70 0.51 0.43 0.43 0.50 0.51 0.52 0.72 0.85 0.82 0.68 0.57 0.63 0.78 0.95 1.19 1.34 1.50 1.52 1.41 1.58 1.55 1.55 1.48 1.36 1.22 1.22 1.21
0.02 0.02 0.05 0.06 0.07 0.08 0.07 0.07 0.06 0.05 0.08 0.15 0.38 0.61 0.59 0.55 0.47 0.43 0.49 0.47 0.38 0.44 0.55 0.72 0.91 0.86 0.64 0.51 0.52 0.62 0.81 0.99 1.09 1.19 1.29 1.29 1.36 1.35 1.37 1.40 1.39 1.35 1.33 1.29
0.02 0.02 0.03 0.07 0.09 0.08 0.09 0.09 0.09 0.08 0.08 0.09 0.18 0.37 0.32 0.36 0.38 0.39 0.50 0.56 0.50 0.51 0.59 0.56 0.65 0.78 0.70 0.61 0.51 0.58 0.74 0.87 0.91 0.97 0.99 1.05 1.14 1.19 1.19 1.19 1.28 1.35 1.31 1.25
0.03 0.02 0.03 0.11 0.18 0.15 0.10 0.08 0.09 0.10 0.09 0.08 0.21 0.41 0.34 0.29 0.39 0.38 0.42 0.65 0.76 0.48 0.41 0.43 0.52 0.60 0.68 0.63 0.54 0.63 0.73 0.79 0.87 0.86 0.88 0.94 1.01 1.04 1.06 1.11 1.21 1.31 1.34 1.34
0.03 0.02 0.03 0.10 0.19 0.20 0.16 0.11 0.11 0.10 0.07 0.07 0.13 0.34 0.34 0.34 0.38 0.53 0.59 0.65 0.52 0.39 0.36 0.35 0.44 0.60 0.68 0.68 0.62 0.62 0.73 0.90 0.95 0.92 1.01 1.12 1.15 1.17 1.18 1.20 1.30 1.39 1.44 1.41
0.03 0.02 0.02 0.03 0.07 0.12 0.15 0.15 0.12 0.08 0.05 0.08 0.11 0.21 0.26 0.35 0.42 0.48 0.46 0.45 0.42 0.43 0.39 0.38 0.46 0.63 0.72 0.85 0.86 0.79 0.77 0.87 1.01 1.12 1.22 1.39 1.53 1.54 1.43 1.44 1.56 1.66 1.71 1.66
0.03 0.03 0.03 0.03 0.06 0.10 0.12 0.14 0.10 0.07 0.06 0.06 0.08 0.15 0.21 0.35 0.37 0.43 0.40 0.37 0.42 0.45 0.43 0.41 0.51 0.66 0.69 0.71 0.77 0.77 0.78 0.82 0.86 0.98 1.10 1.31 1.49 1.55 1.55 1.60 1.72 1.77 1.76 1.85
0.07 0.06 0.05 0.04 0.07 0.09 0.17 0.13 0.09 0.09 0.08 0.07 0.11 0.16 0.20 0.30 0.42 0.51 0.53 0.56 0.55 0.45 0.40 0.44 0.50 0.57 0.67 0.64 0.66 0.76 0.82 0.90 0.99 1.13 1.28 1.39 1.48 1.57 1.61 1.62 1.70 1.77 1.78 1.76
0.17 0.15 0.12 0.10 0.11 0.16 0.17 0.13 0.12 0.12 0.13 0.16 0.20 0.23 0.28 0.31 0.40 0.51 0.54 0.54 0.54 0.55 0.61 0.66 0.73 0.75 0.75 0.71 0.72 0.82 0.87 0.94 1.01 1.10 1.21 1.29 1.45 1.58 1.67 1.81 1.89 1.96 2.02 2.03
0.28 0.29 0.23 0.17 0.15 0.18 0.21 0.20 0.20 0.22 0.26 0.28 0.36 0.41 0.41 0.40 0.42 0.53 0.60 0.59 0.65 0.64 0.68 0.77 0.83 0.87 0.81 0.85 0.92 0.99 1.00 1.07 1.14 1.20 1.37 1.50 1.58 1.71 1.77 1.82 1.95 2.09 2.18 2.14
0.32 0.36 0.33 0.26 0.27 0.29 0.30 0.31 0.26 0.28 0.53 0.50 0.52 0.57 0.56 0.60 0.76 0.86 0.86 0.78 0.75 0.75 0.77 0.85 0.85 0.84 0.91 0.94 1.01 1.09 1.16 1.30 1.38 1.41 1.50 1.60 1.75 1.81 1.80 1.80 1.88 1.94 2.00 2.04
0.37 0.43 0.41 0.37 0.36 0.36 0.35 0.35 0.35 0.61 0.89 0.88 0.87 0.84 0.76 0.84 0.91 0.84 0.78 0.86 0.83 0.86 0.94 0.91 0.90 0.94 0.96 0.95 1.00 1.12 1.26 1.39 1.46 1.48 1.53 1.63 1.72 1.88 1.94 1.96 1.88 1.80 1.82 1.87
0.59 0.62 0.61 0.58 0.68 0.70 0.49 0.52 0.73 0.93 0.90 1.07 1.02 0.92 0.91 0.89 0.84 0.76 0.76 0.89 0.98 1.02 1.09 1.07 1.04 1.00 1.00 1.05 1.11 1.21 1.34 1.42 1.48 1.49 1.56 1.64 1.67 1.68 1.70 1.86 1.90 1.86 1.84 1.84
0.77 0.81 0.85 0.81 0.90 0.81 0.68 0.70 0.79 0.76 0.78 0.93 0.94 0.85 0.84 0.82 0.78 0.74 0.78 0.84 0.87 0.93 1.02 1.04 1.07 1.08 1.11 1.17 1.25 1.37 1.42 1.49 1.50 1.57 1.70 1.79 1.77 1.75 1.74 1.75 1.81 1.80 1.72 1.61
0.94 0.76 0.90 1.09 1.11 0.97 0.83 0.72 0.72 0.72 0.74 0.78 0.86 0.91 0.89 0.85 0.82 0.82 0.82 0.84 0.93 0.98 1.03 1.09 1.07 1.10 1.21 1.32 1.44 1.46 1.42 1.51 1.67 1.73 1.74 1.75 1.76 1.70 1.73 1.82 1.76 1.71 1.70 1.60
1.06 1.00 1.17 1.53 1.60 1.40 1.22 1.04 0.93 0.88 0.85 0.89 0.99 1.02 1.07 1.06 1.03 1.00 0.93 0.90 0.91 0.96 0.97 1.03 1.11 1.15 1.24 1.30 1.40 1.50 1.53 1.58 1.67 1.63 1.54 1.54 1.57 1.54 1.52 1.62 1.69 1.57 1.53 1.55
1.10 1.27 1.54 1.85 1.72 1.68 1.55 1.27 1.11 1.07 1.10 1.04 1.08 1.10 1.09 1.07 1.06 1.04 1.03 0.92 0.85 0.85 0.94 0.99 1.05 1.13 1.21 1.27 1.33 1.36 1.42 1.51 1.61 1.66 1.59 1.53 1.49 1.50 1.53 1.53 1.53 1.49 1.33 1.32